SCP
0 0 0 0 0 0 0 0 0 0 0 0 0 0 0 0 0 0 0 0 0 0 1 0 0 0 0 0 0 0 0 0
0 0 0 0 0 0 0 0 0 0 0 0 0 0 0 0 0 0 0 0 0 0 1 0 0 0 0 0 0 0 0 0
0 0 0 0 0 0 0 0 0 0 0 0 0 0 0 0 0 0 0 0 0 1 1 1 0 0 0 0 0 0 0 0
0 0 0 0 0 0 0 0 0 0 0 0 0 0 0 0 0 0 0 0 0 1 1 1 0 0 0 0 0 0 0 0
0 0 0 0 0 0 0 0 0 0 0 0 0 0 0 0 0 0 0 0 0 0 0 0 0 0 0 0 0 0 0 0
0 0 0 0 0 0 0 0 0 0 0 0 0 0 0 0 0 0 0 0 0 0 0 0 0 0 0 0 0 0 0 0
0 0 0 0 0 0 0 0 0 0 0 0 0 0 0 0 0 0 0 0 0 0 0 0 0 0 0 0 0 0 0 0
0 0 0 0 0 0 0 0 0 0 0 0 0 0 0 0 0 0 0 0 0 0 0 0 0 0 0 0 0 0 0 0
0 0 0 0 0 0 0 0 0 0 0 0 0 0 0 0 0 0 0 0 0 0 0 0 0 0 0 0 0 0 0 0
0 0 0 0 0 0 0 0 0 0 0 0 0 0 0 0 0 0 0 0 0 0 0 0 0 0 0 0 0 0 0 0
0 0 0 0 0 0 0 0 0 0 0 0 0 0 0 0 0 0 0 0 0 0 0 0 0 0 0 0 0 0 0 -0
0 0 0 0 0 0 0 0 0 0 0 0 0 0 0 0 0 0 0 0 0 0 0 0 0 0 0 0 0 0 0 0
0 0 0 0 0 0 0 0 0 0 0 0 0 0 0 0 0 0 0 0 0 0 0 0 0 0 0 -0 -0 0 0 0
0 0 0 0 0 0 0 0 0 0 0 0 0 0 0 0 0 0 0 0 0 0 0 0 0 0 0 0 0 0 0 0
0 0 0 0 0 0 0 0 0 0 0 0 0 0 0 0 0 0 0 0 0 0 0 0 0 0 0 0 0 0 0 0
-0 0 0 0 0 0 0 0 0 0 0 0 0 0 0 0 0 0 0 0 0 0 0 0 0 0 0 0 0 0 0 0
0 -0 0 0 0 0 0 0 0 0 0 0 0 0 0 0 0 0 0 0 0 0 0 0 0 0 0 0 0 0 0 0
-0 -0 0 0 0 0 0 0 0 0 0 0 0 0 0 0 0 0 0 0 0 0 0 0 0 0 0 0 0 0 0 0
0 0 0 0 0 0 0 0 0 0 0 0 0 0 0 0 0 0 0 0 0 0 0 0 0 0 0 0 0 0 0 0
0 0 0 0 0 0 0 0 0 0 0 0 0 0 0 0 0 0 0 0 0 0 0 0 0 0 0 0 0 0 0 0
Wind_Speed_500mb
7 7 10 11 10 16 13 19 25 10 3 6 7 12 10 13 14 25 29 21 18 25 30 33 38 43 46 51 53 49 42 40
6 9 12 12 14 16 5 13 21 20 11 7 7 4 3 13 20 25 22 24 23 22 22 29 32 39 46 49 51 53 49 37
7 9 8 7 16 26 10 6 9 23 11 10 7 4 8 11 13 19 25 23 19 20 27 31 34 40 47 50 46 40 41 37
7 10 7 3 17 35 13 10 10 10 11 7 7 5 0 6 14 16 14 14 19 21 21 30 42 46 53 48 48 43 47 40
10 9 1 8 17 18 14 17 6 21 7 10 12 11 9 8 10 10 13 17 21 28 40 45 49 51 52 47 48 47 45 47
7 11 10 10 19 17 25 9 18 19 11 9 23 17 8 7 12 15 20 23 30 39 40 46 53 56 51 50 49 49 52 52
11 17 12 17 10 22 10 19 9 8 15 25 24 14 10 15 19 18 22 28 31 35 40 52 55 44 43 37 39 46 48 52
11 9 13 26 19 27 13 21 11 28 30 25 17 11 16 17 19 24 25 32 37 37 45 46 44 41 36 28 20 30 44 40
10 15 22 21 16 17 40 4 30 44 33 24 13 9 10 14 21 27 31 35 35 37 37 40 39 36 31 17 16 26 22 18
20 14 22 19 24 13 22 21 38 30 30 23 14 2 9 19 24 29 35 37 34 28 34 33 28 31 17 13 12 15 11 6
24 26 24 24 14 13 21 30 34 35 33 23 10 2 12 17 28 27 36 31 32 27 28 27 27 28 26 13 14 10 4 8
22 22 25 16 8 16 23 35 37 38 34 20 7 1 7 17 28 28 35 30 31 28 26 26 20 27 22 15 10 3 6 10
7 18 11 13 5 16 34 41 41 39 31 22 11 4 8 18 23 27 34 26 27 23 25 25 20 25 19 12 10 9 11 9
10 11 5 14 18 9 39 52 44 40 35 26 16 4 8 13 16 26 29 24 27 26 27 23 20 19 16 15 10 13 11 11
10 22 6 7 14 7 49 54 46 47 40 29 21 13 9 8 13 24 23 23 30 28 29 26 20 19 16 14 11 6 6 5
11 9 12 13 20 7 49 53 47 52 42 33 23 15 12 5 10 19 22 21 27 25 28 23 24 19 17 15 16 15 10 7
7 8 12 23 17 20 35 27 32 51 45 36 26 19 15 7 6 14 23 15 24 24 27 24 20 20 15 15 19 15 8 12
13 9 16 13 24 9 19 33 39 55 50 43 33 28 21 12 4 8 21 11 14 21 29 36 27 18 23 23 22 17 18 14
15 9 5 6 13 6 9 26 28 52 55 46 40 34 28 20 8 2 13 19 13 16 21 30 37 23 26 27 27 22 23 17
10 6 11 10 10 9 8 21 19 47 56 53 44 34 31 25 11 3 5 18 13 20 20 23 27 25 25 30 32 43 34 34
Wind_Direction_500mb
109 118 189 211 193 217 233 190 164 147 63 133 141 156 178 217 297 310 310 310 300 300 302 298 297 298 298 299 301 301 297 290
94 231 246 198 197 200 204 215 184 156 101 120 165 177 279 314 328 326 324 313 297 287 288 293 291 288 291 293 294 291 289 277
316 264 257 214 188 180 196 224 216 177 156 141 116 11 349 354 329 303 300 294 280 288 291 284 284 293 297 296 289 279 271 258
269 262 278 264 177 179 203 225 167 117 106 146 140 83 224 314 307 297 300 309 302 297 293 299 305 304 307 291 280 275 265 261
245 265 176 230 182 177 176 162 224 148 113 155 172 178 192 273 303 322 331 332 324 315 313 310 308 300 303 290 283 277 268 263
221 215 221 215 170 193 165 180 129 194 172 188 168 173 206 274 313 331 334 326 323 315 310 306 305 304 295 284 276 266 266 267
242 167 224 189 153 167 165 145 120 164 154 160 169 181 236 307 314 323 330 319 327 315 307 308 307 308 305 287 271 265 266 268
209 229 202 183 172 162 133 129 101 123 142 159 173 225 313 334 344 343 337 333 326 316 314 320 316 314 315 306 295 296 293 277
264 221 198 174 194 163 132 213 176 166 167 174 204 286 342 4 4 359 347 334 329 325 329 329 327 323 313 295 305 304 301 278
192 205 162 172 189 162 164 206 186 186 183 187 208 202 24 13 8 1 346 342 338 331 339 339 348 347 335 314 324 343 345 326
163 159 178 170 186 180 203 165 171 176 184 187 185 51 13 23 16 359 352 356 347 335 343 349 359 0 8 2 349 353 40 92
176 173 160 144 177 167 181 162 172 182 182 183 189 24 34 26 14 0 359 357 354 348 344 350 348 356 359 3 10 38 153 142
242 187 188 150 197 231 195 176 179 182 181 179 175 118 30 35 9 3 2 4 2 8 7 4 8 7 13 10 43 76 130 136
256 155 243 156 261 253 188 181 187 183 183 181 170 135 77 51 14 8 15 14 10 14 13 12 13 15 32 31 74 94 118 156
296 192 143 170 258 262 186 190 191 188 184 179 162 150 119 68 18 16 29 19 17 31 28 26 22 27 31 28 40 72 108 148
259 216 188 201 249 277 191 198 194 192 186 181 171 161 148 107 26 23 33 20 19 23 19 24 24 32 36 35 49 62 70 71
246 245 182 225 224 231 197 207 190 191 190 185 176 156 158 146 44 32 29 21 23 35 34 30 24 36 46 53 66 70 71 77
283 245 178 254 245 216 188 216 203 188 195 189 175 169 171 169 128 39 25 27 24 40 49 46 40 55 58 69 68 70 74 83
236 338 234 127 302 209 219 209 206 201 203 192 185 177 178 175 173 58 27 26 35 45 57 45 41 61 75 71 70 77 88 86
249 157 236 141 257 293 230 209 190 188 199 195 189 183 179 176 181 144 39 24 82 78 59 54 50 62 82 75 80 76 88 90
Wind_Speed_850mb
7 7 10 11 10 16 13 19 25 10 3 6 7 12 10 13 14 25 29 21 18 25 30 33 38 43 46 51 53 49 42 40
6 9 12 12 14 16 5 13 21 20 11 7 7 4 3 13 20 25 22 24 23 22 22 29 32 39 46 49 51 53 49 37
7 9 8 7 16 26 10 6 9 23 11 10 7 4 8 11 13 19 25 23 19 20 27 31 34 40 47 50 46 40 41 37
7 10 7 3 17 35 13 10 10 10 11 7 7 5 0 6 14 16 14 14 19 21 21 30 42 46 53 48 48 43 47 40
10 9 1 8 17 18 14 17 6 21 7 10 12 11 9 8 10 10 13 17 21 28 40 45 49 51 52 47 48 47 45 47
7 11 10 10 19 17 25 9 18 19 11 9 23 17 8 7 12 15 20 23 30 39 40 46 53 56 51 50 49 49 52 52
11 17 12 17 10 22 10 19 9 8 15 25 24 14 10 15 19 18 22 28 31 35 40 52 55 44 43 37 39 46 48 52
11 9 13 26 19 27 13 21 11 28 30 25 17 11 16 17 19 24 25 32 37 37 45 46 44 41 36 28 20 30 44 40
10 15 22 21 16 17 40 4 30 44 33 24 13 9 10 14 21 27 31 35 35 37 37 40 39 36 31 17 16 26 22 18
20 14 22 19 24 13 22 21 38 30 30 23 14 2 9 19 24 29 35 37 34 28 34 33 28 31 17 13 12 15 11 6
24 26 24 24 14 13 21 30 34 35 33 23 10 2 12 17 28 27 36 31 32 27 28 27 27 28 26 13 14 10 4 8
22 22 25 16 8 16 23 35 37 38 34 20 7 1 7 17 28 28 35 30 31 28 26 26 20 27 22 15 10 3 6 10
7 18 11 13 5 16 34 41 41 39 31 22 11 4 8 18 23 27 34 26 27 23 25 25 20 25 19 12 10 9 11 9
10 11 5 14 18 9 39 52 44 40 35 26 16 4 8 13 16 26 29 24 27 26 27 23 20 19 16 15 10 13 11 11
10 22 6 7 14 7 49 54 46 47 40 29 21 13 9 8 13 24 23 23 30 28 29 26 20 19 16 14 11 6 6 5
11 9 12 13 20 7 49 53 47 52 42 33 23 15 12 5 10 19 22 21 27 25 28 23 24 19 17 15 16 15 10 7
7 8 12 23 17 20 35 27 32 51 45 36 26 19 15 7 6 14 23 15 24 24 27 24 20 20 15 15 19 15 8 12
13 9 16 13 24 9 19 33 39 55 50 43 33 28 21 12 4 8 21 11 14 21 29 36 27 18 23 23 22 17 18 14
15 9 5 6 13 6 9 26 28 52 55 46 40 34 28 20 8 2 13 19 13 16 21 30 37 23 26 27 27 22 23 17
10 6 11 10 10 9 8 21 19 47 56 53 44 34 31 25 11 3 5 18 13 20 20 23 27 25 25 30 32 43 34 34
Wind_Direction_850mb
109 118 189 211 193 217 233 190 164 147 63 133 141 156 178 217 297 310 310 310 300 300 302 298 297 298 298 299 301 301 297 290
94 231 246 198 197 200 204 215 184 156 101 120 165 177 279 314 328 326 324 313 297 287 288 293 291 288 291 293 294 291 289 277
316 264 257 214 188 180 196 224 216 177 156 141 116 11 349 354 329 303 300 294 280 288 291 284 284 293 297 296 289 279 271 258
269 262 278 264 177 179 203 225 167 117 106 146 140 83 224 314 307 297 300 309 302 297 293 299 305 304 307 291 280 275 265 261
245 265 176 230 182 177 176 162 224 148 113 155 172 178 192 273 303 322 331 332 324 315 313 310 308 300 303 290 283 277 268 263
221 215 221 215 170 193 165 180 129 194 172 188 168 173 206 274 313 331 334 326 323 315 310 306 305 304 295 284 276 266 266 267
242 167 224 189 153 167 165 145 120 164 154 160 169 181 236 307 314 323 330 319 327 315 307 308 307 308 305 287 271 265 266 268
209 229 202 183 172 162 133 129 101 123 142 159 173 225 313 334 344 343 337 333 326 316 314 320 316 314 315 306 295 296 293 277
264 221 198 174 194 163 132 213 176 166 167 174 204 286 342 4 4 359 347 334 329 325 329 329 327 323 313 295 305 304 301 278
192 205 162 172 189 162 164 206 186 186 183 187 208 202 24 13 8 1 346 342 338 331 339 339 348 347 335 314 324 343 345 326
163 159 178 170 186 180 203 165 171 176 184 187 185 51 13 23 16 359 352 356 347 335 343 349 359 0 8 2 349 353 40 92
176 173 160 144 177 167 181 162 172 182 182 183 189 24 34 26 14 0 359 357 354 348 344 350 348 356 359 3 10 38 153 142
242 187 188 150 197 231 195 176 179 182 181 179 175 118 30 35 9 3 2 4 2 8 7 4 8 7 13 10 43 76 130 136
256 155 243 156 261 253 188 181 187 183 183 181 170 135 77 51 14 8 15 14 10 14 13 12 13 15 32 31 74 94 118 156
296 192 143 170 258 262 186 190 191 188 184 179 162 150 119 68 18 16 29 19 17 31 28 26 22 27 31 28 40 72 108 148
259 216 188 201 249 277 191 198 194 192 186 181 171 161 148 107 26 23 33 20 19 23 19 24 24 32 36 35 49 62 70 71
246 245 182 225 224 231 197 207 190 191 190 185 176 156 158 146 44 32 29 21 23 35 34 30 24 36 46 53 66 70 71 77
283 245 178 254 245 216 188 216 203 188 195 189 175 169 171 169 128 39 25 27 24 40 49 46 40 55 58 69 68 70 74 83
236 338 234 127 302 209 219 209 206 201 203 192 185 177 178 175 173 58 27 26 35 45 57 45 41 61 75 71 70 77 88 86
249 157 236 141 257 293 230 209 190 188 199 195 189 183 179 176 181 144 39 24 82 78 59 54 50 62 82 75 80 76 88 90